Hourly Data Report for September 03, 2017

All times are specified in Local Standard Time (LST). Add 1 hour to adjust for Daylight Saving Time where and when it is observed.

SUMMERSIDE
PRINCE EDWARD ISLAND

46°26'28.000" N
63°50'17.000" W
12.20 m
8300596
71702
WSD

Download Data

Hourly Data (September 2017)
Hourly Data Report for September 3, 2017
Temp Definition
°C
Dew Point Temp Definition
°C
Rel Hum Definition
%
Wind Dir Definition
10's deg

Wind Spd Definition
km/h
Visibility Definition
km
Stn Press Definition
kPa
Hmdx Definition


Wind Chill Definition


Weather Definition


TIME
00:00 8.1 6.9 92 18 6   102.11     LegendNANA
01:00 6.8 5.9 94 19 5   102.14     LegendNANA
02:00 6.3 5.5 95 13 2   102.15     LegendNANA
03:00 7.4 6.8 96 15 7   102.15     LegendNANA
04:00 8.3 7.9 97 18 9   102.20     LegendNANA
05:00 5.6 5.0 96 16 5   102.19     LegendNANA
06:00 6.6 6.0 96 17 8   102.19     LegendNANA
07:00 12.2 11.7 97 17 4   102.26     LegendNANA
08:00 14.3 12.5 89 20 11   102.26     LegendNANA
09:00 16.1 12.5 79 18 14   102.31     LegendNANA
10:00 17.0 12.6 75 18 18   102.30     LegendNANA
11:00 17.7 12.1 70 19 15   102.24     LegendNANA
12:00 18.5 11.1 62 18 15   102.16     LegendNANA
13:00 18.9 10.3 58 16 14   102.08     LegendNANA
14:00 19.2 9.6 54 18 14   102.01     LegendNANA
15:00 19.1 9.3 53 17 19   101.97     LegendNANA
16:00 18.9 10.4 57 16 21   101.91     LegendNANA
17:00 18.5 11.2 62 16 21   101.84     LegendNANA
18:00 17.3 11.6 69 16 24   101.83     LegendNANA
19:00 16.1 9.8 66 18 22   101.74     LegendNANA
20:00 16.0 10.4 69 17 18   101.66     LegendNANA
21:00 15.9 10.8 72 16 19   101.52     LegendNANA
22:00 15.1 10.9 76 16 26   101.43     LegendNANA
23:00 15.0 10.8 76 16 25   101.29     LegendNANA

Notes on Data Quality.

Legend

  • E = Estimated
  • M = Missing
  • NA = Not Available
  • ‡ = Partner data that is not subject to review by the National Climate Archives
Date modified: